Weather History for KGTB - May, 2014

Change the Weather History Date:

Thursday, May 15, 2014

  Actual Average Record
Temperature  
Mean Temperature 76 °F -  
Max Temperature 86 °F 63 °F 86 °F (2014)
Min Temperature 66 °F 42 °F 33 °F (2001)
Cooling Degree Days 10    
Growing Degree Days 26 (Base 50)    
Moisture  
Dew Point 62 °F    
Average Humidity 66    
Maximum Humidity 87    
Minimum Humidity 40    
Precipitation  
Precipitation 0.00 in - - ()
Sea Level Pressure  
Sea Level Pressure 29.96 in    
Wind  
Wind Speed 16 mph (South)    
Max Wind Speed 31 mph    
Max Gust Speed 45 mph    
Visibility 10 miles    
Events      
Averages and records for this station are not official NWS values.
T = Trace of Precipitation, MM = Missing Value Source: NWS Daily Summary

Daily Weather History Graph

Daily Weather History Graph

Search for Another Location

Airport or City:

Trip Planner

Search our weather history database for the weather conditions in past years. The results will help you decide how hot, cold, wet, or windy it might be!

Date:

Astronomy

May. 15, 2014 Rise Set
Actual Time 5:36 AM EDT 8:22 PM EDT
Civil Twilight 5:03 AM EDT 8:56 PM EDT
Nautical Twilight 4:21 AM EDT 9:38 PM EDT
Astronomical Twilight 3:32 AM EDT 10:27 PM EDT
Moon 9:27 PM EDT (5/15) 6:22 AM EDT (5/15)
Length of Visible Light 15h 52m
Length of Day
14h 45m
Full, 99% of the Moon is Illuminated
May 15
Full
May 21
Last Quarter
May 28
New
Jun 5
First Quarter
Jun 13
Full

Hourly Weather History & Observations

Time (EDT) Temp. Heat Index Dew Point Humidity Pressure Visibility Wind Dir Wind Speed Gust Speed Precip Events Conditions
12:58 AM 71.1 °F - 62.2 °F 74% 30.06 in 10.0 mi SSW 10.4 mph - N/A   Scattered Clouds
1:58 AM 69.3 °F - 62.4 °F 79% 30.06 in 10.0 mi South 12.7 mph - N/A   Partly Cloudy
2:58 AM 67.1 °F - 62.1 °F 84% 30.04 in 10.0 mi South 10.4 mph - N/A   Clear
3:58 AM 66.7 °F - 62.2 °F 85% 30.04 in 10.0 mi South 9.2 mph - N/A   Clear
4:58 AM 66.2 °F - 62.1 °F 86% 30.03 in 10.0 mi SSE 10.4 mph - N/A   Clear
5:58 AM 66.0 °F - 62.1 °F 87% 30.01 in 10.0 mi SE 12.7 mph - N/A   Clear
6:58 AM 67.6 °F - 63.0 °F 85% 30.01 in 10.0 mi SSE 12.7 mph - N/A   Clear
7:58 AM 68.2 °F - 63.3 °F 84% 30.01 in 10.0 mi SSE 19.6 mph - N/A   Scattered Clouds
8:58 AM 72.5 °F - 64.2 °F 75% 30.01 in 10.0 mi SSE 16.1 mph 27.6 mph N/A   Clear
9:58 AM 75.0 °F - 65.3 °F 72% 30.00 in 10.0 mi SSE 12.7 mph - N/A   Partly Cloudy
10:58 AM 77.7 °F - 65.7 °F 66% 29.97 in 10.0 mi SSE 17.3 mph 27.6 mph N/A   Partly Cloudy
11:58 AM 82.2 °F 83.3 °F 63.0 °F 52% 29.95 in 10.0 mi South 20.7 mph 32.2 mph N/A   Clear
12:58 PM 84.7 °F 84.6 °F 60.3 °F 43% 29.92 in 10.0 mi South 25.3 mph 39.1 mph N/A   Clear
1:58 PM 85.3 °F 84.6 °F 58.3 °F 40% 29.91 in 10.0 mi SSW 26.5 mph 36.8 mph N/A   Clear
2:58 PM 84.7 °F 84.4 °F 59.0 °F 42% 29.90 in 10.0 mi South 26.5 mph 35.7 mph N/A   Clear
3:58 PM 84.2 °F 84.2 °F 60.3 °F 44% 29.89 in 10.0 mi South 31.1 mph 39.1 mph N/A   Clear
4:58 PM 81.3 °F 81.6 °F 58.8 °F 46% 29.90 in 10.0 mi South 26.5 mph 44.9 mph N/A   Clear
5:58 PM 79.9 °F - 59.5 °F 50% 29.91 in 10.0 mi South 24.2 mph 33.4 mph N/A   Clear
6:58 PM 78.6 °F - 60.6 °F 54% 29.89 in 10.0 mi South 21.9 mph 32.2 mph N/A   Clear
7:58 PM 77.0 °F - 61.3 °F 58% 29.90 in 10.0 mi South 13.8 mph - N/A   Clear
8:58 PM 74.8 °F - 63.0 °F 66% 29.91 in 10.0 mi SSE 19.6 mph 25.3 mph N/A   Partly Cloudy
9:58 PM 73.4 °F - 63.1 °F 70% 29.91 in 10.0 mi SSE 17.3 mph 24.2 mph N/A   Partly Cloudy
10:58 PM 71.2 °F - 63.5 °F 76% 29.89 in 10.0 mi SSE 17.3 mph 26.5 mph N/A   Partly Cloudy
11:58 PM 70.7 °F - 63.1 °F 77% 29.90 in 10.0 mi SSE 16.1 mph - N/A   Scattered Clouds